This is the latest recevied weather packets stored in our database for station/object KD8NVS-13. If no packets are shown the sender has not sent any weather packets the latest 10 day(s).
| Time | Temp. | Humidity | Pressure | Rain* | Wind** | Luminosity | Snow |
|---|---|---|---|---|---|---|---|
| 1777651355 | 8.89° C | 84% | 1002.5 hPa | 0 mm | - | 62 W/m² | - |
| 1777651052 | 8.89° C | 86% | 1002.5 hPa | 0.25 mm | - | 45 W/m² | - |
| 1777650749 | 8.89° C | 87% | 1002.5 hPa | 0.25 mm | - | 67 W/m² | - |
| 1777650446 | 8.89° C | 87% | 1002.1 hPa | 0.25 mm | - | 35 W/m² | - |
| 1777650143 | 8.89° C | 87% | 1002.1 hPa | 0 mm | - | 58 W/m² | - |
| 1777649841 | 8.89° C | 87% | 1002.5 hPa | 0 mm | - | 51 W/m² | - |
| 1777649538 | 9.44° C | 88% | 1002.1 hPa | 0 mm | - | 62 W/m² | - |
| 1777649234 | 8.89° C | 88% | 1002.1 hPa | 0 mm | - | 57 W/m² | - |
| 1777648931 | 8.89° C | 87% | 1002.1 hPa | 0 mm | - | 48 W/m² | - |
| 1777648628 | 9.44° C | 87% | 1001.8 hPa | 0 mm | - | 61 W/m² | - |
| 1777648324 | 8.89° C | 87% | 1002.5 hPa | 0 mm | - | 91 W/m² | - |
| 1777648021 | 8.33° C | 87% | 1002.1 hPa | 0 mm | - | 129 W/m² | - |
| 1777647717 | 8.33° C | 87% | 1002.1 hPa | 0 mm | - | 84 W/m² | - |
| 1777647413 | 8.33° C | 86% | 1002.1 hPa | 0.25 mm | - | 30 W/m² | - |
| 1777647111 | 8.33° C | 85% | 1002.1 hPa | 0.25 mm | - | 42 W/m² | - |
| 1777646808 | 8.33° C | 84% | 1002.5 hPa | 0.25 mm | - | 45 W/m² | - |
| 1777646502 | 8.89° C | 81% | 1002.5 hPa | 0 mm | - | 33 W/m² | - |
| 1777646199 | 9.44° C | 79% | 1002.5 hPa | 0 mm | - | 21 W/m² | - |
| 1777645897 | 9.44° C | 78% | 1001.8 hPa | 0 mm | - | 24 W/m² | - |
| 1777645593 | 9.44° C | 78% | 1001.8 hPa | 0 mm | - | 37 W/m² | - |
| 1777645290 | 9.44° C | 77% | 1002.1 hPa | 0 mm | - | 46 W/m² | - |
| 1777644985 | 9.44° C | 78% | 1002.1 hPa | 0 mm | - | 37 W/m² | - |
| 1777644684 | 9.44° C | 77% | 1002.5 hPa | 0 mm | - | 46 W/m² | - |
| 1777644379 | 9.44° C | 76% | 1002.1 hPa | 0 mm | - | 54 W/m² | - |
| 1777644076 | 9.44° C | 75% | 1002.1 hPa | 0 mm | - | 32 W/m² | - |
* Rain latest hour (hover to see other rain measurements)
** Current wind speed in m/s (hover to see current wind gust speed)